FENGYUN 1C DEB

Satellite information

Favourite Embed

Satellite Type and Status

DEBRISIN ORBIT

Key statistics

Satellite FENGYUN 1C DEB at a glance.

Uptime

9663

Days in orbit

Revolutions

≈ 14.0

Per day

Orbit

SSO

Sun Synchronous Orbit

Inclination

99.1

Latest

Satellite identification and parameters

Extended collection of information and parameters for FENGYUN 1C DEB.

Object identification

Identified? True

Debris? True

Object name: FENGYUN 1C DEB

International designator: 1999-025AKQ

Object number (NORAD): 30550

Object ID (CCSDS): 30550

Country: PEOPLES REPUBLIC OF CHINA (PRC)

Current information (Y/N): Y

RCS size: SMALL

Orbital parameters

Period: 102.73 minutes

Inclination: 99.0531 deg

SMA: 7265.935 km

Apoapsis: 983.702 km

Periapsis: 791.898 km

RAAN: 190.6317 deg

Eccentricy: 0.01319888

Argument of periapsis: 77.9686 deg

Mean anomaly: 297.2918 deg

Mean motion: 14.01733683 rev/day

Mean motion (dot): 0.00005449 rev/day2

B* drag term: 0.0033516534 1/REarth

Two-line elements (TLE)

Creation date: Oct. 22, 2025, 5:40 p.m.

Reference frame: TEME

Reference center: EARTH

Epoch: Oct. 21, 2025, 11:53 p.m. UTC

TLE line 0: 0 FENGYUN 1C DEB

TLE line 1: 1 30550U 99025AKQ 25294.99551988 .00005449 00000-0 33517-2 0 9997

TLE line 2: 2 30550 99.0531 190.6317 0131989 77.9686 297.2918 14.01733683946703

Live tracking on map

Real-time ground track for satellite FENGYUN 1C DEB.

In-orbit conjunctions

A list of the most updated potential collisions computed for object FENGYUN 1C DEB.

Target Orbit TCA Probability of collision Miss distance Type
COSMOS 2016 LEO 2025-10-11 23:35:45 0.0005839628 195.0 (m) PAYLOAD
ASTRID LEO 2024-12-17 20:54:16 0.001400361 174.0 (m) PAYLOAD
COSMOS 516 LEO 2024-10-04 14:35:23 0.0001553324 612.0 (m) PAYLOAD

Associated space launch

Chinese polar orbiting meteorological satellite

FENGYUN 1C DEB was lifted into orbit during the mission ‘Long March 4B | Feng Yun 1C’, on board a Long March 4B space rocket.

The launch took place on May 10, 1999, 1:33 a.m. from Launch Complex 7.

For more information about the launch, click the button.

Launch to space Long March 4B | Feng Yun 1C
Long March 4B | Feng Yun 1C

Agency: N/A

Status: Launch Successful

Launch date: May 10, 1999, 1:33 a.m. UTC

Rocket: Long March 4B

Launch pad: Launch Complex 7

Location: Taiyuan Satellite Launch Center, People's Republic of China

...

Latest news about this satellite

There are no fresh news available about this satellite. Check back as we update our databases every day.


Newsletter sign-up

Weekly statistics, charts and insights to help you stay on top of the space industry.